Pittsfield, IL

1:13 PM CDT on March 30, 2017 (GMT -0500)
Pittsfield Penstone Municipal

Weather History for KPPQ - January, 2006

Change the Weather History Date:

Sunday, January 29, 2006

  Actual Average (KUIN) Record (KUIN)
Temperature  
Mean Temperature 45 °F -  
Max Temperature 51 °F 33 °F 63 °F (2013)
Min Temperature 39 °F 17 °F -15 °F (1915)
Degree Days  
Heating Degree Days 20    
Moisture  
Dew Point 44 °F    
Average Humidity 87    
Maximum Humidity 100    
Minimum Humidity 76    
Precipitation  
Precipitation 0.03 in - - ()
Sea Level Pressure  
Sea Level Pressure 29.57 in    
Wind  
Wind Speed 10 mph (WSW)    
Max Wind Speed 21 mph    
Max Gust Speed 31 mph    
Visibility 9 miles    
Events Rain , Thunderstorm    
Averages and records for this station are not official NWS values.
T = Trace of Precipitation, MM = Missing Value Source: NWS Daily Summary

Daily Weather History Graph

Daily Weather History Graph

Search for Another Location

Airport or City:

Trip Planner

Search our weather history database for the weather conditions in past years. The results will help you decide how hot, cold, wet, or windy it might be!

Date:

Astronomy

Jan. 29, 2006 Rise Set
Actual Time 7:13 AM CST 5:19 PM CST
Civil Twilight 6:44 AM CST 5:48 PM CST
Nautical Twilight 6:12 AM CST 6:20 PM CST
Astronomical Twilight 5:40 AM CST 6:52 PM CST
Moon 7:39 AM CST (1/29) 5:32 PM CST (1/29)
Length of Visible Light 11h 03m
Length of Day
10h 05m
New Moon, 0% of the Moon is Illuminated
Jan 29
New Moon
Feb 5
First Quarter
Feb 12
Full
Feb 21
Last Quarter
Feb 27
New

Hourly Weather History & Observations

Time (CST) Temp. Windchill Dew Point Humidity Pressure Visibility Wind Dir Wind Speed Gust Speed Precip Events Conditions
12:03 AM 50.0 °F - 48.2 °F 94% 29.51 in 5.0 mi WSW 4.6 mph - N/A   Light Drizzle
12:24 AM 50.0 °F - 50.0 °F 100% 29.49 in 5.0 mi WSW 8.1 mph - 0.01 in Rain Rain
12:42 AM 50.0 °F - 50.0 °F 100% 29.49 in 5.0 mi WSW 6.9 mph - N/A Rain Rain
1:02 AM 50.0 °F - 50.0 °F 100% 29.47 in 5.0 mi SW 4.6 mph - 0.02 in Rain Rain
1:22 AM 50.0 °F - 48.2 °F 94% 29.46 in 5.0 mi WSW 3.5 mph - 0.03 in Rain Light Rain
1:42 AM 50.0 °F - 48.2 °F 94% 29.46 in 7.0 mi WSW 6.9 mph - N/A   Overcast
2:02 AM 50.0 °F - 48.2 °F 94% 29.46 in 5.0 mi WSW 6.9 mph - N/A   Overcast
2:22 AM 50.0 °F - 50.0 °F 100% 29.45 in 7.0 mi WSW 5.8 mph - N/A   Overcast
2:44 AM 51.8 °F - 50.0 °F 94% 29.45 in 10.0 mi SW 11.5 mph - N/A   Overcast
3:02 AM 51.8 °F - 50.0 °F 94% 29.45 in 10.0 mi SW 13.8 mph 18.4 mph N/A   Overcast
3:22 AM 51.8 °F - 50.0 °F 94% 29.44 in 10.0 mi SW 8.1 mph - N/A   Overcast
3:42 AM 51.8 °F - 50.0 °F 94% 29.44 in 10.0 mi WSW 9.2 mph - N/A   Overcast
4:02 AM 51.8 °F - 48.2 °F 88% 29.44 in 10.0 mi WSW 9.2 mph - N/A   Overcast
4:22 AM 51.8 °F - 48.2 °F 88% 29.44 in 10.0 mi WSW 10.4 mph 16.1 mph N/A   Overcast
4:42 AM 51.8 °F - 48.2 °F 88% 29.45 in 10.0 mi WSW 9.2 mph - N/A   Overcast
5:02 AM 51.8 °F - 48.2 °F 88% 29.45 in 10.0 mi SW 12.7 mph - N/A   Mostly Cloudy
5:22 AM 51.8 °F - 48.2 °F 88% 29.45 in 10.0 mi SW 12.7 mph 19.6 mph N/A Thunderstorm Mostly Cloudy
5:42 AM 51.8 °F - 48.2 °F 88% 29.46 in 10.0 mi WSW 16.1 mph 21.9 mph N/A   Overcast
6:02 AM 51.8 °F - 48.2 °F 88% 29.47 in 10.0 mi WSW 16.1 mph 21.9 mph N/A   Mostly Cloudy
6:22 AM 51.8 °F - 48.2 °F 88% 29.48 in 10.0 mi WSW 17.3 mph 24.2 mph N/A   Overcast
6:42 AM 50.0 °F - 44.6 °F 82% 29.49 in 10.0 mi WSW 17.3 mph 29.9 mph N/A   Overcast
7:02 AM 48.2 °F - 44.6 °F 87% 29.51 in 10.0 mi WSW 17.3 mph 25.3 mph N/A   Overcast
7:22 AM 48.2 °F - 44.6 °F 87% 29.51 in 10.0 mi WSW 16.1 mph 24.2 mph N/A   Overcast
7:42 AM 48.2 °F - 44.6 °F 87% 29.53 in 10.0 mi WSW 18.4 mph 25.3 mph N/A   Overcast
8:02 AM 48.2 °F - 44.6 °F 87% 29.55 in 10.0 mi WSW 18.4 mph 24.2 mph N/A   Overcast
8:22 AM 48.2 °F - 44.6 °F 87% 29.55 in 10.0 mi WSW 17.3 mph 23.0 mph N/A   Overcast
8:42 AM 48.2 °F - 44.6 °F 87% 29.57 in 10.0 mi WSW 12.7 mph 24.2 mph N/A   Overcast
9:02 AM 48.2 °F - 44.6 °F 87% 29.57 in 10.0 mi WSW 15.0 mph 20.7 mph N/A   Overcast
9:22 AM 48.2 °F - 44.6 °F 87% 29.58 in 10.0 mi WSW 15.0 mph 28.8 mph N/A   Overcast
9:42 AM 48.2 °F - 44.6 °F 87% 29.58 in 10.0 mi West 13.8 mph 21.9 mph N/A   Overcast
10:02 AM 48.2 °F - 44.6 °F 87% 29.60 in 10.0 mi WSW 17.3 mph 24.2 mph N/A   Overcast
10:22 AM 48.2 °F - 44.6 °F 87% 29.61 in 7.0 mi WSW 15.0 mph 20.7 mph N/A   Overcast
10:42 AM 48.2 °F - 44.6 °F 87% 29.62 in 7.0 mi WSW 13.8 mph 21.9 mph N/A   Overcast
11:02 AM 46.4 °F 40.1 °F 42.8 °F 87% 29.62 in 7.0 mi WSW 15.0 mph - N/A   Overcast
11:22 AM 48.2 °F - 42.8 °F 82% 29.63 in 7.0 mi WSW 15.0 mph 21.9 mph N/A   Overcast
11:42 AM 46.4 °F 39.0 °F 42.8 °F 87% 29.63 in 7.0 mi WSW 19.6 mph 26.5 mph N/A   Overcast
12:02 PM 46.4 °F 39.2 °F 42.8 °F 87% 29.64 in 7.0 mi WSW 18.4 mph 24.2 mph N/A   Overcast
12:22 PM 46.4 °F 40.1 °F 42.8 °F 87% 29.65 in 7.0 mi WSW 15.0 mph 23.0 mph N/A   Overcast
12:42 PM 44.6 °F 36.4 °F 41.0 °F 87% 29.66 in 7.0 mi WSW 20.7 mph 31.1 mph N/A   Overcast
1:02 PM 44.6 °F 36.9 °F 39.2 °F 81% 29.66 in 7.0 mi West 18.4 mph 28.8 mph N/A   Overcast
1:25 PM 44.6 °F 38.4 °F 39.2 °F 81% 29.65 in 7.0 mi WSW 12.7 mph 23.0 mph N/A   Overcast
2:02 PM 44.6 °F 37.8 °F 39.2 °F 81% 29.65 in 10.0 mi WSW 15.0 mph 18.4 mph N/A   Overcast
2:22 PM 44.6 °F 37.4 °F 39.2 °F 81% 29.66 in 10.0 mi WSW 16.1 mph 24.2 mph N/A   Overcast
2:44 PM 44.6 °F 38.8 °F 39.2 °F 81% 29.66 in 10.0 mi West 11.5 mph 19.6 mph N/A   Overcast
3:02 PM 44.6 °F 39.2 °F 39.2 °F 81% 29.67 in 10.0 mi West 10.4 mph - N/A   Overcast
3:22 PM 44.6 °F 39.7 °F 39.2 °F 81% 29.67 in 10.0 mi West 9.2 mph - N/A   Overcast
3:42 PM 44.6 °F 38.1 °F 37.4 °F 76% 29.69 in 10.0 mi West 13.8 mph 18.4 mph N/A   Overcast
4:02 PM 44.6 °F 39.2 °F 37.4 °F 76% 29.70 in 10.0 mi West 10.4 mph - N/A   Overcast
4:22 PM 44.6 °F 39.7 °F 39.2 °F 81% 29.71 in 10.0 mi West 9.2 mph - N/A   Overcast
4:42 PM 44.6 °F 41.4 °F 37.4 °F 76% 29.72 in 10.0 mi West 5.8 mph - N/A   Mostly Cloudy
5:02 PM 42.8 °F 40.1 °F 37.4 °F 81% 29.71 in 10.0 mi West 4.6 mph - N/A   Scattered Clouds
5:22 PM 42.8 °F 41.1 °F 37.4 °F 81% 29.72 in 10.0 mi West 3.5 mph - N/A   Clear
5:42 PM 41.0 °F - 37.4 °F 87% 29.71 in 10.0 mi Calm Calm - N/A   Clear
6:02 PM 39.2 °F - 37.4 °F 93% 29.71 in 7.0 mi Calm Calm - N/A   Clear
6:22 PM 39.2 °F - 37.4 °F 93% 29.72 in 7.0 mi Calm Calm - N/A   Clear
6:42 PM 39.2 °F - 37.4 °F 93% 29.72 in 7.0 mi Calm Calm - N/A   Clear
7:02 PM 37.4 °F - 37.4 °F 100% 29.73 in 7.0 mi Calm Calm - N/A   Clear
7:22 PM 37.4 °F - 35.6 °F 93% 29.74 in 4.0 mi Calm Calm - N/A   Clear
7:42 PM 35.6 °F - 35.6 °F 100% 29.73 in 3.0 mi Calm Calm - N/A   Clear
8:02 PM 35.6 °F - 35.6 °F 100% 29.73 in 4.0 mi Calm Calm - N/A   Clear
8:22 PM 37.4 °F - 35.6 °F 93% 29.73 in 4.0 mi Calm Calm - N/A   Clear
8:44 PM 35.6 °F - 33.8 °F 93% 29.73 in 3.0 mi Calm Calm - N/A   Clear
9:02 PM 33.8 °F - 33.8 °F 100% 29.73 in 3.0 mi Calm Calm - N/A   Clear
9:22 PM 32.0 °F 28.7 °F 32.0 °F 100% 29.74 in 3.0 mi SW 3.5 mph - N/A   Clear
9:42 PM 35.6 °F 32.8 °F 35.6 °F 100% 29.74 in 4.0 mi West 3.5 mph - N/A   Scattered Clouds
10:02 PM 37.4 °F 34.9 °F 35.6 °F 93% 29.74 in 5.0 mi WSW 3.5 mph - N/A   Mostly Cloudy
10:24 PM 35.6 °F 32.8 °F 35.6 °F 100% 29.75 in 5.0 mi West 3.5 mph - N/A   Scattered Clouds
10:42 PM 37.4 °F 33.8 °F 35.6 °F 93% 29.75 in 5.0 mi West 4.6 mph - N/A   Scattered Clouds
11:02 PM 39.2 °F 33.0 °F 35.6 °F 87% 29.75 in 7.0 mi West 9.2 mph - N/A   Mostly Cloudy
11:22 PM 39.2 °F 33.6 °F 35.6 °F 87% 29.75 in 7.0 mi West 8.1 mph - N/A   Mostly Cloudy
11:44 PM 37.4 °F 32.1 °F 35.6 °F 93% 29.76 in 7.0 mi West 6.9 mph - N/A   Scattered Clouds